Palestine, TX

7:43 PM CDT on April 23, 2017 (GMT -0500)
Palestine Municipal

Weather History for KPSN - October, 2012

Change the Weather History Date:

Friday, October 12, 2012

  Actual Average (KTYR) Record (KTYR)
Temperature  
Mean Temperature 78 °F -  
Max Temperature 89 °F 75 °F 95 °F (1963)
Min Temperature 67 °F 55 °F 36 °F (1946)
Cooling Degree Days 13    
Growing Degree Days 28 (Base 50)    
Moisture  
Dew Point 66 °F    
Average Humidity 76    
Maximum Humidity 92    
Minimum Humidity 44    
Precipitation  
Precipitation 0.00 in - - ()
Sea Level Pressure  
Sea Level Pressure 30.17 in    
Wind  
Wind Speed 4 mph (SE)    
Max Wind Speed 9 mph    
Max Gust Speed -    
Visibility 8 miles    
Events      
Averages and records for this station are not official NWS values.
T = Trace of Precipitation, MM = Missing Value Source: NWS Daily Summary

Daily Weather History Graph

Daily Weather History Graph

Search for Another Location

Airport or City:

Trip Planner

Search our weather history database for the weather conditions in past years. The results will help you decide how hot, cold, wet, or windy it might be!

Date:

Astronomy

Oct. 12, 2012 Rise Set
Actual Time 7:24 AM CDT 6:53 PM CDT
Civil Twilight 6:59 AM CDT 7:17 PM CDT
Nautical Twilight 6:31 AM CDT 7:46 PM CDT
Astronomical Twilight 6:03 AM CDT 8:14 PM CDT
Moon 4:18 AM CDT (10/12) 4:56 PM CDT (10/12)
Length of Visible Light 12h 18m
Length of Day
11h 29m
Waning Crescent, 10% of the Moon is Illuminated
Oct 12
Waning Crescent
Oct 15
New
Oct 21
First Quarter
Oct 29
Full
Nov 6
Last Quarter

Hourly Weather History & Observations

Time (CDT) Temp. Heat Index Dew Point Humidity Pressure Visibility Wind Dir Wind Speed Gust Speed Precip Events Conditions
12:35 AM 70.2 °F - 65.3 °F 85% 30.17 in 7.0 mi ESE 3.5 mph - N/A   Clear
12:55 AM 69.3 °F - 64.8 °F 86% 30.17 in 7.0 mi ESE 3.5 mph - N/A   Clear
1:15 AM 69.3 °F - 65.1 °F 87% 30.17 in 7.0 mi ESE 6.9 mph - N/A   Clear
1:35 AM 69.6 °F - 65.5 °F 87% 30.16 in 7.0 mi ESE 5.8 mph - N/A   Clear
1:55 AM 69.8 °F - 65.7 °F 87% 30.17 in 7.0 mi SE 5.8 mph - N/A   Clear
2:15 AM 69.4 °F - 65.7 °F 88% 30.17 in 7.0 mi SE 4.6 mph - N/A   Clear
2:35 AM 69.3 °F - 65.5 °F 88% 30.17 in 7.0 mi SE 3.5 mph - N/A   Clear
2:55 AM 69.1 °F - 65.5 °F 88% 30.17 in 7.0 mi SE 3.5 mph - N/A   Clear
3:15 AM 68.9 °F - 65.3 °F 88% 30.17 in 7.0 mi SE 3.5 mph - N/A   Clear
3:55 AM 68.0 °F - 64.8 °F 89% 30.17 in 5.0 mi Calm Calm - N/A   Clear
4:15 AM 67.8 °F - 64.6 °F 89% 30.17 in 5.0 mi SE 3.5 mph - N/A   Clear
4:35 AM 68.0 °F - 64.8 °F 89% 30.16 in 4.0 mi Calm Calm - N/A   Clear
4:55 AM 67.3 °F - 64.4 °F 90% 30.16 in 4.0 mi Calm Calm - N/A   Clear
5:15 AM 67.3 °F - 64.4 °F 90% 30.17 in 3.0 mi Calm Calm - N/A   Clear
5:35 AM 67.3 °F - 64.4 °F 90% 30.17 in 2.5 mi SE 3.5 mph - N/A   Clear
5:55 AM 67.3 °F - 64.4 °F 90% 30.17 in 2.5 mi SE 3.5 mph - N/A   Clear
6:15 AM 67.6 °F - 64.8 °F 90% 30.18 in 2.5 mi SSE 3.5 mph - N/A   Mist
6:35 AM 67.8 °F - 65.1 °F 91% 30.18 in 2.5 mi SE 3.5 mph - N/A   Overcast
6:55 AM 67.8 °F - 65.1 °F 91% 30.18 in 2.5 mi SE 3.5 mph - N/A   Overcast
7:15 AM 67.6 °F - 64.9 °F 91% 30.18 in 2.5 mi Calm Calm - N/A   Mist
7:35 AM 67.6 °F - 65.1 °F 92% 30.18 in 1.8 mi Calm Calm - N/A   Overcast
7:55 AM 68.0 °F - 65.3 °F 91% 30.20 in 2.0 mi Calm Calm - N/A   Overcast
8:15 AM 68.2 °F - 65.7 °F 92% 30.20 in 2.0 mi Calm Calm - N/A   Overcast
8:35 AM 68.9 °F - 66.4 °F 92% 30.20 in 2.0 mi Calm Calm - N/A   Overcast
9:15 AM 71.6 °F - 68.7 °F 91% 30.21 in 5.0 mi SSE 5.8 mph - N/A   Mostly Cloudy
9:35 AM 73.0 °F - 70.3 °F 91% 30.22 in 7.0 mi South 5.8 mph - N/A   Mostly Cloudy
9:55 AM 74.1 °F - 71.2 °F 91% 30.22 in 10.0 mi SSW 4.6 mph - N/A   Mostly Cloudy
10:15 AM 75.2 °F - 72.0 °F 90% 30.22 in 7.0 mi South 8.1 mph - N/A   Mostly Cloudy
10:35 AM 77.0 °F - 73.4 °F 89% 30.22 in 10.0 mi SSW 8.1 mph - N/A   Scattered Clouds
10:55 AM 77.5 °F - 73.0 °F 86% 30.23 in 10.0 mi South 9.2 mph - N/A   Scattered Clouds
11:15 AM 77.7 °F - 72.7 °F 84% 30.23 in 10.0 mi South 8.1 mph - N/A   Mostly Cloudy
11:35 AM 77.5 °F - 69.8 °F 77% 30.23 in 10.0 mi SSE 8.1 mph - N/A   Scattered Clouds
12:15 PM 81.0 °F 85.1 °F 71.4 °F 73% 30.22 in 10.0 mi SSE 8.1 mph - N/A   Mostly Cloudy
12:35 PM 82.4 °F 86.1 °F 69.4 °F 65% 30.21 in 10.0 mi SSW 6.9 mph - N/A   Scattered Clouds
12:55 PM 83.5 °F 86.4 °F 67.6 °F 59% 30.20 in 10.0 mi South 6.9 mph - N/A   Scattered Clouds
1:35 PM 85.8 °F 89.1 °F 68.0 °F 55% 30.18 in 10.0 mi SE 8.1 mph - N/A   Scattered Clouds
2:15 PM 86.9 °F 91.0 °F 68.7 °F 55% 30.16 in 10.0 mi South 9.2 mph - N/A   Mostly Cloudy
2:35 PM 84.4 °F 86.6 °F 66.0 °F 54% 30.16 in 10.0 mi SE 4.6 mph - N/A   Scattered Clouds
2:55 PM 85.1 °F 87.4 °F 66.4 °F 53% 30.15 in 10.0 mi SE 5.8 mph - N/A   Mostly Cloudy
3:35 PM 88.2 °F 90.6 °F 66.4 °F 48% 30.15 in 10.0 mi ESE 6.9 mph - N/A   Mostly Cloudy
3:55 PM 89.1 °F 91.3 °F 66.0 °F 46% 30.15 in 10.0 mi SE 5.8 mph - N/A   Mostly Cloudy
4:15 PM 88.9 °F 90.7 °F 64.8 °F 45% 30.15 in 10.0 mi ESE 8.1 mph - N/A   Scattered Clouds
4:35 PM 87.4 °F 88.2 °F 63.1 °F 44% 30.14 in 10.0 mi SSE 4.6 mph - N/A   Clear
5:15 PM 87.1 °F 88.9 °F 65.3 °F 48% 30.14 in 10.0 mi SSE 6.9 mph - N/A   Clear
5:35 PM 86.9 °F 88.6 °F 64.8 °F 48% 30.14 in 10.0 mi SSE 4.6 mph - N/A   Clear
5:55 PM 86.0 °F 87.3 °F 64.4 °F 48% 30.14 in 10.0 mi SE 4.6 mph - N/A   Clear
6:15 PM 84.6 °F 86.1 °F 64.4 °F 51% 30.14 in 10.0 mi SE 5.8 mph - N/A   Clear
6:35 PM 82.6 °F 83.8 °F 63.5 °F 52% 30.14 in 10.0 mi SE 3.5 mph - N/A   Clear
6:55 PM 80.2 °F 81.8 °F 63.9 °F 57% 30.14 in 10.0 mi ESE 4.6 mph - N/A   Clear
7:15 PM 77.9 °F - 65.1 °F 65% 30.14 in 10.0 mi East 3.5 mph - N/A   Clear
7:55 PM 76.3 °F - 66.6 °F 72% 30.13 in 10.0 mi ESE 6.9 mph - N/A   Clear
8:15 PM 75.9 °F - 67.1 °F 74% 30.12 in 10.0 mi ESE 8.1 mph - N/A   Clear
8:35 PM 75.7 °F - 66.9 °F 74% 30.12 in 10.0 mi ESE 9.2 mph - N/A   Clear
8:55 PM 75.7 °F - 66.0 °F 72% 30.13 in 10.0 mi ESE 8.1 mph - N/A   Clear
9:15 PM 75.4 °F - 65.3 °F 71% 30.13 in 10.0 mi ESE 6.9 mph - N/A   Clear
9:35 PM 74.8 °F - 65.3 °F 72% 30.14 in 10.0 mi ESE 5.8 mph - N/A   Clear
9:55 PM 74.3 °F - 64.9 °F 72% 30.15 in 10.0 mi ESE 5.8 mph - N/A   Clear
10:15 PM 73.8 °F - 65.3 °F 75% 30.15 in 10.0 mi East 3.5 mph - N/A   Scattered Clouds
10:55 PM 73.6 °F - 65.3 °F 75% 30.16 in 10.0 mi ESE 5.8 mph - N/A   Scattered Clouds
11:15 PM 73.8 °F - 65.7 °F 76% 30.16 in 10.0 mi ESE 6.9 mph - N/A   Scattered Clouds
11:35 PM 73.6 °F - 65.5 °F 76% 30.15 in 10.0 mi ESE 8.1 mph - N/A   Clear
11:55 PM 73.2 °F - 65.3 °F 76% 30.15 in 10.0 mi SE 5.8 mph - N/A   Clear